Darstellungsparameter: Aktuell verwendete Einstellungen:
Skalierung der Graphiken ... ?
xyx+y,   Skalierungsfaktor:      Skalierung: Modus: x, Faktor: 1
Darstellungszeitraum ... ?
Vom - - bis: - -   Zeitraum: 03.08.2014 - 02.08.2015
Min/Max/Avg-Anzeige ... ?
Zeige MMA aktuell
Zeige MMA Monat
Zeige MMA alles
Zeige --A aktuell
Zeige --A Monat
Zeige --A alles
Keine MMA-Anzeige
MMA:
Keine MMA-Graphiken
MMA-Basis: 03.08.2014 - 02.08.2015
Quicknavigation für Darstellung... ?
Tage:      1T, 2T, 3T, 5T -1T -2T -3T -5T +1T +2T +3T +5T
Wochen: 1W, 2W, 3W -1W -2W -3W +1W +2W +3W
Monate: 1M, 3M, 6M -1M -3M -6M +1M +3M +6M
Jahre:    1J, 3J, 5J, 10J -1J -3J -5J -10J +1J +3J +5J +10J
Nutze für die Darstellung ... ?
Originaldaten oder ...
Mittelwerte Minima Maxima auf...
Stundenbasis Tagesbasis Wochenbasis
Monatsbasis Jahresbasis      Datenbasis: Mittelwerte auf Tagesbasis
Darstellen als:
Statistik (Auto) Statistik J:M      Darstellung:
Zur Graphik,    zurück zur Übersicht aller Sensoren.
 
Tabellarische Datenbersicht: ?
 
Sensor: Nr:Datum:Temp:Feuchte:
Aussen-T/F 1 03-08-2014 00:00:00 21.8375 C 62.9583 %
2 04-08-2014 00:00:00 19.43667 C 70.3250 %
3 05-08-2014 00:00:00 19.66167 C 65.3333 %
4 06-08-2014 00:00:00 17.87 C 70.1750 %
5 07-08-2014 00:00:00 19.71583 C 71.2417 %
6 08-08-2014 00:00:00 18.99244 C 76.3109 %
7 09-08-2014 00:00:00 20.905 C 64.4167 %
8 10-08-2014 00:00:00 19.14333 C 76.2833 %
9 11-08-2014 00:00:00 17.42917 C 68.8917 %
10 12-08-2014 00:00:00 18.35 C 56.2083 %
11 13-08-2014 00:00:00 16.19917 C 76.1250 %
12 14-08-2014 00:00:00 16.49917 C 71.6750 %
13 15-08-2014 00:00:00 14.77167 C 80.5083 %
14 16-08-2014 00:00:00 15.25667 C 79.6417 %
15 17-08-2014 00:00:00 15.9275 C 65.1333 %
16 18-08-2014 00:00:00 16.58583 C 59.3583 %
17 19-08-2014 00:00:00 13.895 C 70.0500 %
18 20-08-2014 00:00:00 13.07083 C 69.7583 %
19 21-08-2014 00:00:00 13.27167 C 69.0000 %
20 22-08-2014 00:00:00 14.33583 C 63.0167 %
21 23-08-2014 00:00:00 14.56 C 69.4917 %
22 24-08-2014 00:00:00 11.57667 C 85.1000 %
23 25-08-2014 00:00:00 13.18167 C 84.9333 %
24 26-08-2014 00:00:00 14.67667 C 89.2083 %
25 27-08-2014 00:00:00 15.95583 C 79.6417 %
Sensor: Nr:Datum:Temp:Feuchte:
Aussen-T/F 26 28-08-2014 00:00:00 15.91167 C 80.5250 %
27 29-08-2014 00:00:00 18.03333 C 76.0000 %
28 30-08-2014 00:00:00 16.32917 C 79.4417 %
29 31-08-2014 00:00:00 14.66 C 83.3833 %
30 01-09-2014 00:00:00 14.71333 C 80.6500 %
31 02-09-2014 00:00:00 14.64 C 78.9167 %
32 03-09-2014 00:00:00 15.14 C 76.4500 %
33 04-09-2014 00:00:00 17.0775 C 74.2667 %
34 05-09-2014 00:00:00 18.66833 C 75.6083 %
35 06-09-2014 00:00:00 18.33917 C 76.5167 %
36 07-09-2014 00:00:00 19.26417 C 69.1417 %
37 08-09-2014 00:00:00 18.5175 C 67.4917 %
38 09-09-2014 00:00:00 16.67417 C 64.7000 %
39 10-09-2014 00:00:00 14.83583 C 66.0250 %
40 11-09-2014 00:00:00 15.42417 C 66.8583 %
41 12-09-2014 00:00:00 14.2075 C 70.2000 %
42 13-09-2014 00:00:00 16.16167 C 74.0667 %
43 14-09-2014 00:00:00 17.56417 C 69.1833 %
44 15-09-2014 00:00:00 16.5525 C 75.1833 %
45 16-09-2014 00:00:00 17.40583 C 74.2083 %
46 17-09-2014 00:00:00 16.28917 C 78.0000 %
47 18-09-2014 00:00:00 17.725 C 83.2083 %
48 19-09-2014 00:00:00 18.6325 C 82.2083 %
49 20-09-2014 00:00:00 17.03083 C 86.5333 %
50 21-09-2014 00:00:00 15.27583 C 87.6250 %
Sensor: Nr:Datum:Temp:Feuchte:
Aussen-T/F 51 22-09-2014 00:00:00 12.79333 C 73.3750 %
52 23-09-2014 00:00:00 10.37083 C 78.9833 %
53 24-09-2014 00:00:00 11.275 C 78.3750 %
54 25-09-2014 00:00:00 13.71917 C 72.4500 %
55 26-09-2014 00:00:00 14.2225 C 76.1083 %
56 27-09-2014 00:00:00 15.72083 C 78.0000 %
57 28-09-2014 00:00:00 14.60417 C 81.9750 %
58 29-09-2014 00:00:00 15.5 C 83.5250 %
59 30-09-2014 00:00:00 16.74667 C 82.0667 %
60 01-10-2014 00:00:00 15.65667 C 83.6083 %
61 02-10-2014 00:00:00 14.43333 C 84.2583 %
62 03-10-2014 00:00:00 13.82917 C 83.5917 %
63 04-10-2014 00:00:00 12.6425 C 83.8250 %
64 05-10-2014 00:00:00 13.02917 C 82.9917 %
65 06-10-2014 00:00:00 14.35833 C 77.2833 %
66 07-10-2014 00:00:00 13.26667 C 84.4833 %
67 08-10-2014 00:00:00 13.03417 C 92.3583 %
68 09-10-2014 00:00:00 15.08333 C 91.5583 %
69 10-10-2014 00:00:00 13.88 C 89.8167 %
70 11-10-2014 00:00:00 14.66417 C 86.5417 %
71 12-10-2014 00:00:00 12.50333 C 86.5667 %
72 13-10-2014 00:00:00 14.65667 C 87.5917 %
73 14-10-2014 00:00:00 12.4325 C 86.2667 %
74 15-10-2014 00:00:00 11.4075 C 89.0583 %
75 16-10-2014 00:00:00 13.5925 C 88.3917 %
Sensor: Nr:Datum:Temp:Feuchte:
Aussen-T/F 76 17-10-2014 00:00:00 13.47833 C 86.3917 %
77 18-10-2014 00:00:00 12.195 C 90.8167 %
78 19-10-2014 00:00:00 14.28333 C 85.3750 %
79 20-10-2014 00:00:00 14.38917 C 74.1667 %
80 21-10-2014 00:00:00 11.20083 C 75.2750 %
81 22-10-2014 00:00:00 8.1 C 78.4833 %
82 23-10-2014 00:00:00 9.89667 C 79.4333 %
83 24-10-2014 00:00:00 10.00333 C 83.3000 %
84 25-10-2014 00:00:00 11.1725 C 86.7750 %
85 26-10-2014 00:00:00 10.8064 C 88.2400 %
86 27-10-2014 00:00:00 8.985 C 88.6167 %
87 28-10-2014 00:00:00 7.8375 C 74.6167 %
88 29-10-2014 00:00:00 8.90333 C 82.7167 %
89 30-10-2014 00:00:00 11.62417 C 89.8833 %
90 31-10-2014 00:00:00 11.50917 C 89.3417 %
91 01-11-2014 00:00:00 10.5225 C 91.9333 %
92 02-11-2014 00:00:00 10.71667 C 90.0417 %
93 03-11-2014 00:00:00 13.025 C 80.6083 %
94 04-11-2014 00:00:00 10.72833 C 91.1417 %
95 05-11-2014 00:00:00 8.93667 C 89.0583 %
96 06-11-2014 00:00:00 5.9725 C 85.6667 %
97 07-11-2014 00:00:00 5.22917 C 87.8250 %
98 08-11-2014 00:00:00 7.955 C 83.9750 %
99 09-11-2014 00:00:00 6.18667 C 91.2250 %
100 10-11-2014 00:00:00 8.08 C 90.5167 %
Sensor: Nr:Datum:Temp:Feuchte:
Aussen-T/F 101 11-11-2014 00:00:00 8.05167 C 86.8417 %
102 12-11-2014 00:00:00 9.01917 C 87.1250 %
103 13-11-2014 00:00:00 9.21 C 90.1667 %
104 14-11-2014 00:00:00 9.9875 C 79.0833 %
105 15-11-2014 00:00:00 9.22083 C 87.0500 %
106 16-11-2014 00:00:00 8.2275 C 94.2500 %
107 17-11-2014 00:00:00 8.16083 C 93.8250 %
108 18-11-2014 00:00:00 8.18583 C 91.6083 %
109 19-11-2014 00:00:00 7.55 C 90.6417 %
110 20-11-2014 00:00:00 6.13167 C 86.5333 %
111 21-11-2014 00:00:00 4.68583 C 89.6833 %
112 22-11-2014 00:00:00 5.0825 C 90.6667 %
113 23-11-2014 00:00:00 5.43667 C 93.0500 %
114 24-11-2014 00:00:00 6.43417 C 88.6917 %
115 25-11-2014 00:00:00 2.7725 C 94.0417 %
116 26-11-2014 00:00:00 4.77167 C 78.6500 %
117 27-11-2014 00:00:00 5.515 C 84.1250 %
118 28-11-2014 00:00:00 5.085 C 80.9083 %
119 29-11-2014 00:00:00 4.1225 C 76.3000 %
120 30-11-2014 00:00:00 3.5875 C 80.5583 %
121 01-12-2014 00:00:00 2.88167 C 80.1500 %
122 02-12-2014 00:00:00 1.2775 C 80.5167 %
123 03-12-2014 00:00:00 1.37917 C 88.1667 %
124 04-12-2014 00:00:00 1.855 C 84.1917 %
125 05-12-2014 00:00:00 3.6275 C 84.5500 %
Sensor: Nr:Datum:Temp:Feuchte:
Aussen-T/F 126 06-12-2014 00:00:00 3.9425 C 88.7167 %
127 07-12-2014 00:00:00 3.6 C 85.1667 %
128 08-12-2014 00:00:00 2.20167 C 88.2083 %
129 09-12-2014 00:00:00 1.87333 C 93.5500 %
130 10-12-2014 00:00:00 3.53667 C 82.2500 %
131 11-12-2014 00:00:00 5.345 C 81.6500 %
132 12-12-2014 00:00:00 8.3375 C 73.7417 %
133 13-12-2014 00:00:00 3.93083 C 94.2750 %
134 14-12-2014 00:00:00 2.09344 C 93.4344 %
135 15-12-2014 00:00:00 2.64417 C 88.8417 %
136 16-12-2014 00:00:00 5.34454 C 84.8403 %
137 17-12-2014 00:00:00 5.2575 C 85.2500 %
138 18-12-2014 00:00:00 11.2075 C 79.4583 %
139 19-12-2014 00:00:00 9.8525 C 74.0083 %
140 20-12-2014 00:00:00 5.07917 C 74.9583 %
141 21-12-2014 00:00:00 5.61176 C 78.9496 %
142 22-12-2014 00:00:00 7.795 C 74.1500 %
143 23-12-2014 00:00:00 9.51333 C 70.7417 %
144 24-12-2014 00:00:00 7.80833 C 72.6167 %
145 25-12-2014 00:00:00 4.1625 C 78.4917 %
146 26-12-2014 00:00:00 2.16667 C 93.7917 %
147 27-12-2014 00:00:00 0.65333 C 91.3250 %
148 28-12-2014 00:00:00 -3.11 C 63.8667 %
149 29-12-2014 00:00:00 -1.09417 C 80.2000 %
150 30-12-2014 00:00:00 1.00917 C 85.8333 %
Sensor: Nr:Datum:Temp:Feuchte:
Aussen-T/F 151 31-12-2014 00:00:00 2.03667 C 89.7917 %
152 01-01-2015 00:00:00 1.09917 C 91.6083 %
153 02-01-2015 00:00:00 2.28833 C 81.9083 %
154 03-01-2015 00:00:00 1.56917 C 89.7000 %
155 04-01-2015 00:00:00 2.34 C 88.6583 %
156 05-01-2015 00:00:00 -1.0425 C 91.8583 %
157 06-01-2015 00:00:00 -1.56083 C 89.2667 %
158 07-01-2015 00:00:00 1.58583 C 87.1583 %
159 08-01-2015 00:00:00 5.70417 C 86.5583 %
160 09-01-2015 00:00:00 8.4875 C 74.8583 %
161 10-01-2015 00:00:00 12.01667 C 67.4167 %
162 11-01-2015 00:00:00 4.37 C 61.3667 %
163 12-01-2015 00:00:00 6.34917 C 69.2250 %
164 13-01-2015 00:00:00 9.21583 C 60.7333 %
165 14-01-2015 00:00:00 4.66 C 76.2917 %
166 15-01-2015 00:00:00 8.05 C 67.8417 %
167 16-01-2015 00:00:00 6.22 C 78.4250 %
168 17-01-2015 00:00:00 2.72417 C 85.6167 %
169 18-01-2015 00:00:00 1.15 C 74.1750 %
170 19-01-2015 00:00:00 0.40417 C 80.5083 %
171 20-01-2015 00:00:00 0.44833 C 82.7833 %
172 21-01-2015 00:00:00 -0.72 C 78.1000 %
173 22-01-2015 00:00:00 0.885 C 71.2833 %
174 23-01-2015 00:00:00 0.86333 C 79.0417 %
175 24-01-2015 00:00:00 0.37417 C 85.8500 %
Sensor: Nr:Datum:Temp:Feuchte:
Aussen-T/F 176 25-01-2015 00:00:00 1.53333 C 90.9000 %
177 26-01-2015 00:00:00 2.28917 C 93.3167 %
178 27-01-2015 00:00:00 3.08417 C 89.7167 %
179 28-01-2015 00:00:00 3.30667 C 85.1833 %
180 29-01-2015 00:00:00 2.22083 C 80.0167 %
181 30-01-2015 00:00:00 1.16333 C 84.4583 %
182 31-01-2015 00:00:00 1.24833 C 77.4833 %
183 01-02-2015 00:00:00 0.8025 C 88.2167 %
184 02-02-2015 00:00:00 1.6425 C 81.6583 %
185 03-02-2015 00:00:00 0.70917 C 78.3833 %
186 04-02-2015 00:00:00 -0.89583 C 77.4417 %
187 05-02-2015 00:00:00 -1.95583 C 67.3417 %
188 06-02-2015 00:00:00 -0.53833 C 54.3833 %
189 07-02-2015 00:00:00 -1.495 C 65.9833 %
190 08-02-2015 00:00:00 2.14833 C 71.8583 %
191 09-02-2015 00:00:00 3.22167 C 83.9500 %
192 10-02-2015 00:00:00 4.31833 C 84.9917 %
193 11-02-2015 00:00:00 3.44417 C 74.2167 %
194 12-02-2015 00:00:00 2.35583 C 77.4917 %
195 13-02-2015 00:00:00 1.6825 C 78.6167 %
196 14-02-2015 00:00:00 2.955 C 76.5583 %
197 15-02-2015 00:00:00 0.83417 C 79.7083 %
198 16-02-2015 00:00:00 1.375 C 77.0917 %
199 17-02-2015 00:00:00 2.8875 C 76.0583 %
200 18-02-2015 00:00:00 3.53167 C 78.0250 %
Sensor: Nr:Datum:Temp:Feuchte:
Aussen-T/F 201 19-02-2015 00:00:00 0.41083 C 77.0500 %
202 20-02-2015 00:00:00 6.3125 C 63.5083 %
203 21-02-2015 00:00:00 4.67167 C 74.6833 %
204 22-02-2015 00:00:00 3.25333 C 72.5333 %
205 23-02-2015 00:00:00 2.82333 C 82.9333 %
206 24-02-2015 00:00:00 4.16917 C 75.1833 %
207 25-02-2015 00:00:00 3.6775 C 82.3250 %
208 26-02-2015 00:00:00 5.68083 C 82.3917 %
209 27-02-2015 00:00:00 4.77667 C 85.3250 %
210 28-02-2015 00:00:00 2.12083 C 77.7167 %
211 01-03-2015 00:00:00 7.28917 C 69.4583 %
212 02-03-2015 00:00:00 5.68167 C 69.3917 %
213 03-03-2015 00:00:00 4.9725 C 68.5583 %
214 04-03-2015 00:00:00 3.96333 C 75.3500 %
215 05-03-2015 00:00:00 4.70417 C 71.3750 %
216 06-03-2015 00:00:00 3.62667 C 75.5083 %
217 07-03-2015 00:00:00 4.36667 C 72.3417 %
218 08-03-2015 00:00:00 5.24417 C 74.3417 %
219 09-03-2015 00:00:00 7.20833 C 73.7333 %
220 10-03-2015 00:00:00 5.26667 C 93.7583 %
221 11-03-2015 00:00:00 3.94917 C 79.4417 %
222 12-03-2015 00:00:00 3.2625 C 73.6750 %
223 13-03-2015 00:00:00 3.52667 C 65.1000 %
224 14-03-2015 00:00:00 4.09417 C 70.8833 %
225 15-03-2015 00:00:00 4.17667 C 81.2500 %
Sensor: Nr:Datum:Temp:Feuchte:
Aussen-T/F 226 16-03-2015 00:00:00 4.02833 C 78.7833 %
227 17-03-2015 00:00:00 6.42917 C 74.4250 %
228 18-03-2015 00:00:00 8.1825 C 73.3667 %
229 19-03-2015 00:00:00 7.68583 C 80.3250 %
230 20-03-2015 00:00:00 7.97833 C 68.2250 %
231 21-03-2015 00:00:00 5.58917 C 79.9000 %
232 22-03-2015 00:00:00 4.97851 C 70.1157 %
233 23-03-2015 00:00:00 3.63333 C 72.3083 %
234 24-03-2015 00:00:00 6.91333 C 68.1583 %
235 25-03-2015 00:00:00 7.45167 C 69.7333 %
236 26-03-2015 00:00:00 6.89083 C 64.1917 %
237 27-03-2015 00:00:00 7.275 C 60.9667 %
238 28-03-2015 00:00:00 8.14583 C 66.5167 %
239 29-03-2015 00:00:00 11.21043 C 69.8870 %
240 30-03-2015 00:00:00 7.73417 C 58.6750 %
241 31-03-2015 00:00:00 9.57083 C 61.3917 %
242 01-04-2015 00:00:00 5.7575 C 57.7667 %
243 02-04-2015 00:00:00 5.965 C 61.6500 %
244 03-04-2015 00:00:00 5.47917 C 60.3083 %
245 04-04-2015 00:00:00 5.84833 C 65.1583 %
246 05-04-2015 00:00:00 4.70167 C 58.9667 %
247 06-04-2015 00:00:00 5.09667 C 62.3833 %
248 07-04-2015 00:00:00 5.6075 C 66.7833 %
249 08-04-2015 00:00:00 8.03333 C 65.2833 %
250 09-04-2015 00:00:00 10.68333 C 66.2667 %
Sensor: Nr:Datum:Temp:Feuchte:
Aussen-T/F 251 10-04-2015 00:00:00 12.5975 C 58.8333 %
252 11-04-2015 00:00:00 12.1425 C 55.4250 %
253 12-04-2015 00:00:00 11.29917 C 58.6333 %
254 13-04-2015 00:00:00 11.2925 C 53.8667 %
255 14-04-2015 00:00:00 13.26667 C 54.8333 %
256 15-04-2015 00:00:00 16.03583 C 52.5500 %
257 16-04-2015 00:00:00 14.85667 C 54.9750 %
258 17-04-2015 00:00:00 11.28 C 53.7833 %
259 18-04-2015 00:00:00 8.30333 C 53.1250 %
260 19-04-2015 00:00:00 9.43083 C 51.3583 %
261 20-04-2015 00:00:00 11.8275 C 49.4500 %
262 21-04-2015 00:00:00 13.27833 C 49.4167 %
263 22-04-2015 00:00:00 10.60917 C 54.1250 %
264 23-04-2015 00:00:00 10.63083 C 58.6417 %
265 24-04-2015 00:00:00 13.17667 C 52.5417 %
266 25-04-2015 00:00:00 12.9125 C 66.3667 %
267 26-04-2015 00:00:00 15.42667 C 65.8083 %
268 27-04-2015 00:00:00 10.30417 C 87.7167 %
269 28-04-2015 00:00:00 8.89333 C 63.8833 %
270 29-04-2015 00:00:00 8.29083 C 62.8750 %
271 30-04-2015 00:00:00 9.585 C 68.6333 %
272 01-05-2015 00:00:00 8.0975 C 73.7083 %
273 02-05-2015 00:00:00 9.81083 C 66.7417 %
274 03-05-2015 00:00:00 13.81833 C 78.0667 %
275 04-05-2015 00:00:00 16.06417 C 72.1250 %
Sensor: Nr:Datum:Temp:Feuchte:
Aussen-T/F 276 05-05-2015 00:00:00 18.12917 C 62.4750 %
277 06-05-2015 00:00:00 13.25833 C 57.6083 %
278 07-05-2015 00:00:00 13.39 C 52.4500 %
279 08-05-2015 00:00:00 14.455 C 53.7000 %
280 09-05-2015 00:00:00 15.36583 C 62.0667 %
281 10-05-2015 00:00:00 14.795 C 62.0917 %
282 11-05-2015 00:00:00 17.42583 C 57.7500 %
283 12-05-2015 00:00:00 17.955 C 59.3167 %
284 13-05-2015 00:00:00 14.00083 C 55.4667 %
285 14-05-2015 00:00:00 13.93833 C 58.5750 %
286 15-05-2015 00:00:00 15.25583 C 63.9333 %
287 16-05-2015 00:00:00 12.21167 C 62.2833 %
288 17-05-2015 00:00:00 14.40083 C 55.0333 %
289 18-05-2015 00:00:00 15.42833 C 52.3583 %
290 19-05-2015 00:00:00 13.43277 C 49.9160 %
291 20-05-2015 00:00:00 11.94083 C 55.4083 %
292 21-05-2015 00:00:00 11.78 C 56.4083 %
293 22-05-2015 00:00:00 15.78583 C 47.5667 %
294 23-05-2015 00:00:00 16.27917 C 52.1083 %
295 24-05-2015 00:00:00 17.4275 C 57.6750 %
296 25-05-2015 00:00:00 13.7775 C 75.4667 %
297 26-05-2015 00:00:00 11.96333 C 58.6000 %
298 27-05-2015 00:00:00 12.29333 C 53.7917 %
299 28-05-2015 00:00:00 14.33917 C 53.4000 %
300 29-05-2015 00:00:00 13.34417 C 59.1167 %
Sensor: Nr:Datum:Temp:Feuchte:
Aussen-T/F 301 30-05-2015 00:00:00 12.57583 C 59.2667 %
302 31-05-2015 00:00:00 14.7625 C 58.4500 %
303 01-06-2015 00:00:00 15.34667 C 64.0000 %
304 02-06-2015 00:00:00 17.45167 C 60.0000 %
305 03-06-2015 00:00:00 18.26417 C 53.1417 %
306 04-06-2015 00:00:00 19.22 C 49.2167 %
307 05-06-2015 00:00:00 23.11167 C 51.2333 %
308 06-06-2015 00:00:00 20.8725 C 60.6750 %
309 07-06-2015 00:00:00 18.5075 C 45.7667 %
310 08-06-2015 00:00:00 16.31333 C 46.7083 %
311 09-06-2015 00:00:00 15.34083 C 43.8833 %
312 10-06-2015 00:00:00 17.59417 C 47.5417 %
313 11-06-2015 00:00:00 20.22167 C 43.8250 %
314 12-06-2015 00:00:00 19.73167 C 62.0667 %
315 13-06-2015 00:00:00 19.42333 C 70.8167 %
316 14-06-2015 00:00:00 19.36333 C 56.1083 %
317 15-06-2015 00:00:00 18.30667 C 55.0333 %
318 16-06-2015 00:00:00 16.365 C 45.2083 %
319 17-06-2015 00:00:00 16.1175 C 49.9583 %
320 18-06-2015 00:00:00 17.6175 C 59.4333 %
321 19-06-2015 00:00:00 12.8725 C 67.0250 %
322 20-06-2015 00:00:00 13.48333 C 66.2250 %
323 21-06-2015 00:00:00 15.8562 C 67.7025 %
324 22-06-2015 00:00:00 12.87 C 76.3000 %
325 23-06-2015 00:00:00 11.54917 C 84.2667 %
Sensor: Nr:Datum:Temp:Feuchte:
Aussen-T/F 326 24-06-2015 00:00:00 15.69333 C 64.0667 %
327 25-06-2015 00:00:00 18.91333 C 58.4917 %
328 26-06-2015 00:00:00 19.88167 C 59.7083 %
329 27-06-2015 00:00:00 20.10862 C 61.3448 %
330 28-06-2015 00:00:00 18.18333 C 57.8250 %
331 29-06-2015 00:00:00 22.07 C 49.5167 %
332 30-06-2015 00:00:00 22.66333 C 50.9083 %
333 01-07-2015 00:00:00 25.10083 C 48.9333 %
334 02-07-2015 00:00:00 27.395 C 48.2250 %
335 03-07-2015 00:00:00 27.8825 C 47.1750 %
336 04-07-2015 00:00:00 28.28667 C 49.8167 %
337 05-07-2015 00:00:00 27.28 C 47.5083 %
338 06-07-2015 00:00:00 22.0075 C 56.0833 %
339 07-07-2015 00:00:00 22.37583 C 51.2500 %
340 08-07-2015 00:00:00 17.825 C 55.9333 %
341 09-07-2015 00:00:00 17.09917 C 50.3417 %
342 10-07-2015 00:00:00 17.43417 C 47.0417 %
343 11-07-2015 00:00:00 21.45167 C 42.0333 %
344 12-07-2015 00:00:00 18.76167 C 56.9083 %
345 13-07-2015 00:00:00 17.3875 C 71.7500 %
346 14-07-2015 00:00:00 20.77083 C 57.6583 %
347 15-07-2015 00:00:00 21.76333 C 57.2167 %
348 16-07-2015 00:00:00 24.265 C 54.6750 %
349 17-07-2015 00:00:00 28.4475 C 37.8417 %
350 18-07-2015 00:00:00 24.14833 C 42.5417 %
Sensor: Nr:Datum:Temp:Feuchte:
Aussen-T/F 351 19-07-2015 00:00:00 20.34667 C 63.1167 %
352 20-07-2015 00:00:00 21.0825 C 72.4167 %
353 21-07-2015 00:00:00 24.695 C 58.8083 %
354 22-07-2015 00:00:00 23.58083 C 55.3333 %
355 23-07-2015 00:00:00 20.82917 C 45.8417 %
356 24-07-2015 00:00:00 21.54 C 51.6667 %
357 25-07-2015 00:00:00 17.33667 C 64.7667 %
358 26-07-2015 00:00:00 15.33782 C 62.9412 %
359 27-07-2015 00:00:00 17.56583 C 67.1833 %
360 28-07-2015 00:00:00 17.15417 C 47.7833 %
361 29-07-2015 00:00:00 16.69 C 46.4167 %
362 30-07-2015 00:00:00 13.83583 C 60.6417 %
363 31-07-2015 00:00:00 16.04333 C 56.5167 %
364 01-08-2015 00:00:00 19.1175 C 44.3917 %
365 02-08-2015 00:00:00 20.51583 C 47.2333 %
Sensor: Nr:Datum:Temp:Feuchte:
G-T/H 1 03-08-2014 00:00:00 21.155 C 70.5750 %
2 04-08-2014 00:00:00 21.04833 C 68.0000 %
3 05-08-2014 00:00:00 20.5525 C 63.7833 %
4 06-08-2014 00:00:00 20.38083 C 62.4333 %
5 07-08-2014 00:00:00 19.99333 C 66.6500 %
6 08-08-2014 00:00:00 20.70084 C 70.2185 %
7 09-08-2014 00:00:00 20.71083 C 69.7333 %
8 10-08-2014 00:00:00 20.08917 C 68.7667 %
9 11-08-2014 00:00:00 19.19 C 65.9083 %
10 12-08-2014 00:00:00 19.14333 C 59.7083 %
11 13-08-2014 00:00:00 18.75333 C 64.9000 %
12 14-08-2014 00:00:00 18.32833 C 65.2750 %
13 15-08-2014 00:00:00 17.98 C 68.0750 %
14 16-08-2014 00:00:00 17.27 C 69.4333 %
15 17-08-2014 00:00:00 17.1775 C 70.0417 %
16 18-08-2014 00:00:00 17.63 C 64.5000 %
17 19-08-2014 00:00:00 17.195 C 63.3167 %
18 20-08-2014 00:00:00 16.40083 C 64.1250 %
19 21-08-2014 00:00:00 15.94583 C 62.9083 %
20 22-08-2014 00:00:00 16.31333 C 64.1083 %
21 23-08-2014 00:00:00 16.15167 C 66.7167 %
22 24-08-2014 00:00:00 15.45 C 68.3750 %
23 25-08-2014 00:00:00 15.32167 C 71.4833 %
24 26-08-2014 00:00:00 15.875 C 73.4333 %
25 27-08-2014 00:00:00 16.25 C 73.1583 %
Sensor: Nr:Datum:Temp:Feuchte:
G-T/H 26 28-08-2014 00:00:00 17.3525 C 73.8417 %
27 29-08-2014 00:00:00 18.265 C 73.5583 %
28 30-08-2014 00:00:00 17.08 C 73.7000 %
29 31-08-2014 00:00:00 17.19667 C 73.1250 %
30 01-09-2014 00:00:00 16.70917 C 71.7167 %
31 02-09-2014 00:00:00 16.52917 C 72.5417 %
32 03-09-2014 00:00:00 16.59417 C 73.4000 %
33 04-09-2014 00:00:00 16.78917 C 74.0333 %
34 05-09-2014 00:00:00 17.9875 C 74.8500 %
35 06-09-2014 00:00:00 18.77417 C 75.6667 %
36 07-09-2014 00:00:00 18.30417 C 76.0083 %
37 08-09-2014 00:00:00 18.67417 C 70.1667 %
38 09-09-2014 00:00:00 18.07667 C 65.7833 %
39 10-09-2014 00:00:00 17.07583 C 66.1333 %
40 11-09-2014 00:00:00 16.73417 C 68.4417 %
41 12-09-2014 00:00:00 16.07417 C 68.7000 %
42 13-09-2014 00:00:00 16.46417 C 72.0000 %
43 14-09-2014 00:00:00 16.74167 C 73.5333 %
44 15-09-2014 00:00:00 16.895 C 74.0417 %
45 16-09-2014 00:00:00 17.9525 C 73.7083 %
46 17-09-2014 00:00:00 18.10833 C 72.9167 %
47 18-09-2014 00:00:00 17.5325 C 75.5083 %
48 19-09-2014 00:00:00 18.6475 C 78.8083 %
49 20-09-2014 00:00:00 17.78667 C 81.2167 %
50 21-09-2014 00:00:00 16.94833 C 80.1833 %
Sensor: Nr:Datum:Temp:Feuchte:
G-T/H 51 22-09-2014 00:00:00 15.92667 C 72.7250 %
52 23-09-2014 00:00:00 14.2925 C 67.6583 %
53 24-09-2014 00:00:00 14.0675 C 69.1583 %
54 25-09-2014 00:00:00 14.93167 C 71.0000 %
55 26-09-2014 00:00:00 15.16667 C 72.6250 %
56 27-09-2014 00:00:00 15.765 C 74.5750 %
57 28-09-2014 00:00:00 15.525 C 75.0750 %
58 29-09-2014 00:00:00 16.46833 C 76.8000 %
59 30-09-2014 00:00:00 16.60417 C 78.0417 %
60 01-10-2014 00:00:00 17.0425 C 77.1500 %
61 02-10-2014 00:00:00 16.42167 C 76.4917 %
62 03-10-2014 00:00:00 15.75333 C 76.9833 %
63 04-10-2014 00:00:00 15.44583 C 75.1333 %
64 05-10-2014 00:00:00 15.09583 C 76.1500 %
65 06-10-2014 00:00:00 15.25 C 77.0000 %
66 07-10-2014 00:00:00 15.26417 C 77.1917 %
67 08-10-2014 00:00:00 14.83083 C 78.1083 %
68 09-10-2014 00:00:00 15.4 C 78.9500 %
69 10-10-2014 00:00:00 15.29167 C 78.4333 %
70 11-10-2014 00:00:00 15.45333 C 79.0000 %
71 12-10-2014 00:00:00 14.96417 C 77.7500 %
72 13-10-2014 00:00:00 15.15833 C 78.6083 %
73 14-10-2014 00:00:00 14.8575 C 78.4500 %
74 15-10-2014 00:00:00 14.27833 C 78.2167 %
75 16-10-2014 00:00:00 14.41667 C 79.4667 %
Sensor: Nr:Datum:Temp:Feuchte:
G-T/H 76 17-10-2014 00:00:00 14.72333 C 79.9833 %
77 18-10-2014 00:00:00 14.7725 C 80.0167 %
78 19-10-2014 00:00:00 14.5575 C 81.0833 %
79 20-10-2014 00:00:00 15.14583 C 78.1083 %
80 21-10-2014 00:00:00 14.3925 C 75.7917 %
81 22-10-2014 00:00:00 12.79583 C 70.0750 %
82 23-10-2014 00:00:00 12.72917 C 76.0667 %
83 24-10-2014 00:00:00 12.91083 C 76.3833 %
84 25-10-2014 00:00:00 13.18833 C 78.3000 %
85 26-10-2014 00:00:00 13.5352 C 78.8400 %
86 27-10-2014 00:00:00 12.75667 C 76.8083 %
87 28-10-2014 00:00:00 12.25083 C 72.4417 %
88 29-10-2014 00:00:00 12.08167 C 73.0250 %
89 30-10-2014 00:00:00 12.88417 C 78.5250 %
90 31-10-2014 00:00:00 13.18333 C 81.5000 %
91 01-11-2014 00:00:00 13.24833 C 78.9333 %
92 02-11-2014 00:00:00 13.02083 C 79.7917 %
93 03-11-2014 00:00:00 13.45833 C 80.7917 %
94 04-11-2014 00:00:00 13.52417 C 80.6833 %
95 05-11-2014 00:00:00 12.92083 C 78.7667 %
96 06-11-2014 00:00:00 11.47917 C 72.8167 %
97 07-11-2014 00:00:00 10.24417 C 71.2000 %
98 08-11-2014 00:00:00 10.84917 C 76.0250 %
99 09-11-2014 00:00:00 10.3475 C 74.0250 %
100 10-11-2014 00:00:00 11.0125 C 77.2000 %
Sensor: Nr:Datum:Temp:Feuchte:
G-T/H 101 11-11-2014 00:00:00 10.78333 C 75.6500 %
102 12-11-2014 00:00:00 11.4225 C 78.0667 %
103 13-11-2014 00:00:00 11.80667 C 79.0000 %
104 14-11-2014 00:00:00 12.14 C 78.7833 %
105 15-11-2014 00:00:00 12.03583 C 78.3833 %
106 16-11-2014 00:00:00 12.005 C 78.9833 %
107 17-11-2014 00:00:00 11.45667 C 77.9083 %
108 18-11-2014 00:00:00 11.54417 C 79.0000 %
109 19-11-2014 00:00:00 11.5525 C 78.1917 %
110 20-11-2014 00:00:00 10.72 C 74.5917 %
111 21-11-2014 00:00:00 9.89917 C 72.6000 %
112 22-11-2014 00:00:00 9.36583 C 72.9667 %
113 23-11-2014 00:00:00 9.58667 C 76.2833 %
114 24-11-2014 00:00:00 9.97333 C 76.4667 %
115 25-11-2014 00:00:00 8.76 C 71.7500 %
116 26-11-2014 00:00:00 8.98417 C 73.9000 %
117 27-11-2014 00:00:00 9.49417 C 75.2417 %
118 28-11-2014 00:00:00 9.59 C 73.8417 %
119 29-11-2014 00:00:00 9.135 C 70.1500 %
120 30-11-2014 00:00:00 8.77083 C 69.6750 %
121 01-12-2014 00:00:00 7.97083 C 67.7833 %
122 02-12-2014 00:00:00 6.86667 C 65.2417 %
123 03-12-2014 00:00:00 7.35583 C 68.5083 %
124 04-12-2014 00:00:00 7.33083 C 67.9500 %
125 05-12-2014 00:00:00 7.93583 C 72.6667 %
Sensor: Nr:Datum:Temp:Feuchte:
G-T/H 126 06-12-2014 00:00:00 8.32333 C 74.1000 %
127 07-12-2014 00:00:00 8.33083 C 74.1000 %
128 08-12-2014 00:00:00 7.65833 C 72.2750 %
129 09-12-2014 00:00:00 7.27917 C 72.7750 %
130 10-12-2014 00:00:00 7.265 C 72.0833 %
131 11-12-2014 00:00:00 7.85667 C 75.6500 %
132 12-12-2014 00:00:00 8.585 C 76.8333 %
133 13-12-2014 00:00:00 8.79167 C 74.4333 %
134 14-12-2014 00:00:00 7.87377 C 72.3279 %
135 15-12-2014 00:00:00 7.2425 C 72.6083 %
136 16-12-2014 00:00:00 8.05126 C 75.7983 %
137 17-12-2014 00:00:00 8.30667 C 75.9417 %
138 18-12-2014 00:00:00 9.53167 C 78.0167 %
139 19-12-2014 00:00:00 10.68583 C 76.9333 %
140 20-12-2014 00:00:00 9.35167 C 70.2833 %
141 21-12-2014 00:00:00 9.10504 C 72.2857 %
142 22-12-2014 00:00:00 9.60167 C 74.4083 %
143 23-12-2014 00:00:00 10.33583 C 75.0167 %
144 24-12-2014 00:00:00 10.54583 C 74.2167 %
145 25-12-2014 00:00:00 9.69333 C 70.9833 %
146 26-12-2014 00:00:00 8.54417 C 69.3333 %
147 27-12-2014 00:00:00 7.8475 C 68.0667 %
148 28-12-2014 00:00:00 6.70333 C 62.4083 %
149 29-12-2014 00:00:00 5.9775 C 65.2500 %
150 30-12-2014 00:00:00 6.58083 C 70.4000 %
Sensor: Nr:Datum:Temp:Feuchte:
G-T/H 151 31-12-2014 00:00:00 7.3375 C 73.0417 %
152 01-01-2015 00:00:00 7.6775 C 72.1500 %
153 02-01-2015 00:00:00 7.65 C 71.8417 %
154 03-01-2015 00:00:00 7.49667 C 70.3167 %
155 04-01-2015 00:00:00 7.1875 C 71.9250 %
156 05-01-2015 00:00:00 6.81167 C 66.4250 %
157 06-01-2015 00:00:00 6.31417 C 67.2000 %
158 07-01-2015 00:00:00 6.57833 C 70.2000 %
159 08-01-2015 00:00:00 7.4925 C 72.5417 %
160 09-01-2015 00:00:00 8.6825 C 74.9750 %
161 10-01-2015 00:00:00 10.68083 C 76.1750 %
162 11-01-2015 00:00:00 9.68667 C 67.1583 %
163 12-01-2015 00:00:00 9.09 C 70.2500 %
164 13-01-2015 00:00:00 10.01333 C 71.3250 %
165 14-01-2015 00:00:00 9.83583 C 68.6667 %
166 15-01-2015 00:00:00 8.9725 C 69.8000 %
167 16-01-2015 00:00:00 9.63333 C 72.8000 %
168 17-01-2015 00:00:00 8.64583 C 69.6333 %
169 18-01-2015 00:00:00 7.1925 C 63.0917 %
170 19-01-2015 00:00:00 6.60583 C 62.7917 %
171 20-01-2015 00:00:00 6.77333 C 62.7167 %
172 21-01-2015 00:00:00 6.3125 C 61.4667 %
173 22-01-2015 00:00:00 6.92583 C 62.8250 %
174 23-01-2015 00:00:00 6.85 C 64.2500 %
175 24-01-2015 00:00:00 6.90667 C 62.2167 %
Sensor: Nr:Datum:Temp:Feuchte:
G-T/H 176 25-01-2015 00:00:00 6.98583 C 71.3583 %
177 26-01-2015 00:00:00 7.25083 C 73.0583 %
178 27-01-2015 00:00:00 7.69333 C 75.4750 %
179 28-01-2015 00:00:00 7.8275 C 74.7250 %
180 29-01-2015 00:00:00 7.26083 C 69.7250 %
181 30-01-2015 00:00:00 7.1 C 70.6750 %
182 31-01-2015 00:00:00 6.745 C 66.2500 %
183 01-02-2015 00:00:00 6.82 C 69.2083 %
184 02-02-2015 00:00:00 7.1025 C 70.7250 %
185 03-02-2015 00:00:00 6.69167 C 65.2917 %
186 04-02-2015 00:00:00 6.07583 C 64.2917 %
187 05-02-2015 00:00:00 5.6975 C 63.6583 %
188 06-02-2015 00:00:00 5.63333 C 62.8750 %
189 07-02-2015 00:00:00 5.60833 C 62.8417 %
190 08-02-2015 00:00:00 6.08167 C 65.9833 %
191 09-02-2015 00:00:00 6.77667 C 68.7083 %
192 10-02-2015 00:00:00 7.82833 C 71.9417 %
193 11-02-2015 00:00:00 8.04333 C 69.1167 %
194 12-02-2015 00:00:00 7.75917 C 65.3750 %
195 13-02-2015 00:00:00 7.4725 C 65.6083 %
196 14-02-2015 00:00:00 6.9375 C 65.3083 %
197 15-02-2015 00:00:00 7.18667 C 64.8917 %
198 16-02-2015 00:00:00 6.68583 C 64.1667 %
199 17-02-2015 00:00:00 7.5275 C 64.5000 %
200 18-02-2015 00:00:00 8.185 C 66.7917 %
Sensor: Nr:Datum:Temp:Feuchte:
G-T/H 201 19-02-2015 00:00:00 7.2275 C 61.3333 %
202 20-02-2015 00:00:00 7.71083 C 65.6417 %
203 21-02-2015 00:00:00 8.42 C 67.9667 %
204 22-02-2015 00:00:00 7.6475 C 65.4583 %
205 23-02-2015 00:00:00 7.175 C 66.7500 %
206 24-02-2015 00:00:00 7.2275 C 70.1333 %
207 25-02-2015 00:00:00 7.2925 C 70.4583 %
208 26-02-2015 00:00:00 7.8375 C 72.2833 %
209 27-02-2015 00:00:00 8.30833 C 72.0000 %
210 28-02-2015 00:00:00 6.84417 C 65.8333 %
211 01-03-2015 00:00:00 7.38167 C 67.8583 %
212 02-03-2015 00:00:00 8.42 C 68.2333 %
213 03-03-2015 00:00:00 7.475 C 65.9000 %
214 04-03-2015 00:00:00 7.65 C 68.4500 %
215 05-03-2015 00:00:00 7.585 C 70.0000 %
216 06-03-2015 00:00:00 7.16583 C 66.8500 %
217 07-03-2015 00:00:00 7.03667 C 65.6083 %
218 08-03-2015 00:00:00 7.45917 C 68.0500 %
219 09-03-2015 00:00:00 8.2575 C 70.6417 %
220 10-03-2015 00:00:00 8.42833 C 71.6167 %
221 11-03-2015 00:00:00 8.21667 C 70.0167 %
222 12-03-2015 00:00:00 7.26833 C 64.0167 %
223 13-03-2015 00:00:00 7.25417 C 62.8500 %
224 14-03-2015 00:00:00 7.70583 C 66.7333 %
225 15-03-2015 00:00:00 8.06667 C 68.9750 %
Sensor: Nr:Datum:Temp:Feuchte:
G-T/H 226 16-03-2015 00:00:00 7.55 C 64.5833 %
227 17-03-2015 00:00:00 7.88667 C 68.5583 %
228 18-03-2015 00:00:00 8.59 C 69.6917 %
229 19-03-2015 00:00:00 9.43667 C 71.4500 %
230 20-03-2015 00:00:00 9.5125 C 71.3167 %
231 21-03-2015 00:00:00 9.23917 C 70.6500 %
232 22-03-2015 00:00:00 8.74545 C 67.5289 %
233 23-03-2015 00:00:00 7.59417 C 63.2833 %
234 24-03-2015 00:00:00 8.16833 C 66.5500 %
235 25-03-2015 00:00:00 9.2225 C 69.1417 %
236 26-03-2015 00:00:00 9.5325 C 66.7917 %
237 27-03-2015 00:00:00 9.40833 C 66.3167 %
238 28-03-2015 00:00:00 9.67333 C 66.9333 %
239 29-03-2015 00:00:00 10.45478 C 70.4000 %
240 30-03-2015 00:00:00 10.31083 C 65.2500 %
241 31-03-2015 00:00:00 10.28583 C 65.0833 %
242 01-04-2015 00:00:00 9.45 C 61.7417 %
243 02-04-2015 00:00:00 9.125 C 62.6750 %
244 03-04-2015 00:00:00 8.76583 C 61.2667 %
245 04-04-2015 00:00:00 9.31417 C 63.2083 %
246 05-04-2015 00:00:00 8.58 C 60.8000 %
247 06-04-2015 00:00:00 8.60833 C 62.3000 %
248 07-04-2015 00:00:00 8.61083 C 63.5750 %
249 08-04-2015 00:00:00 8.96 C 63.3167 %
250 09-04-2015 00:00:00 9.85667 C 66.9083 %
Sensor: Nr:Datum:Temp:Feuchte:
G-T/H 251 10-04-2015 00:00:00 10.805 C 67.4500 %
252 11-04-2015 00:00:00 11.43417 C 66.7167 %
253 12-04-2015 00:00:00 11.4575 C 66.6917 %
254 13-04-2015 00:00:00 11.5775 C 66.7250 %
255 14-04-2015 00:00:00 11.26333 C 65.1250 %
256 15-04-2015 00:00:00 12.2475 C 67.9333 %
257 16-04-2015 00:00:00 12.9 C 68.0667 %
258 17-04-2015 00:00:00 12.79333 C 64.6583 %
259 18-04-2015 00:00:00 11.38833 C 59.6667 %
260 19-04-2015 00:00:00 10.67417 C 60.6583 %
261 20-04-2015 00:00:00 10.87 C 59.7250 %
262 21-04-2015 00:00:00 13.19083 C 54.3833 %
263 22-04-2015 00:00:00 12.6975 C 58.9083 %
264 23-04-2015 00:00:00 11.73833 C 61.1250 %
265 24-04-2015 00:00:00 11.9775 C 62.2250 %
266 25-04-2015 00:00:00 12.93167 C 66.2667 %
267 26-04-2015 00:00:00 13.24583 C 68.6917 %
268 27-04-2015 00:00:00 13.34833 C 69.2000 %
269 28-04-2015 00:00:00 11.89083 C 64.3333 %
270 29-04-2015 00:00:00 11.16667 C 61.7083 %
271 30-04-2015 00:00:00 12.04333 C 65.8333 %
272 01-05-2015 00:00:00 11.29333 C 65.6917 %
273 02-05-2015 00:00:00 11.58667 C 59.4000 %
274 03-05-2015 00:00:00 12.69833 C 65.7750 %
275 04-05-2015 00:00:00 13.4175 C 68.9250 %
Sensor: Nr:Datum:Temp:Feuchte:
G-T/H 276 05-05-2015 00:00:00 14.60308 C 69.0000 %
277 06-05-2015 00:00:00 14.5625 C 64.7667 %
278 07-05-2015 00:00:00 13.93583 C 63.4917 %
279 08-05-2015 00:00:00 13.885 C 63.8667 %
280 09-05-2015 00:00:00 14.42583 C 67.1250 %
281 10-05-2015 00:00:00 14.335 C 68.0333 %
282 11-05-2015 00:00:00 14.62917 C 68.3000 %
283 12-05-2015 00:00:00 15.545 C 69.8000 %
284 13-05-2015 00:00:00 14.80917 C 61.9917 %
285 14-05-2015 00:00:00 14.8 C 64.8583 %
286 15-05-2015 00:00:00 14.81083 C 67.7083 %
287 16-05-2015 00:00:00 14.17583 C 64.5750 %
288 17-05-2015 00:00:00 14.19833 C 66.5000 %
289 18-05-2015 00:00:00 14.45917 C 65.1583 %
290 19-05-2015 00:00:00 14.70336 C 62.5882 %
291 20-05-2015 00:00:00 14.285 C 61.3583 %
292 21-05-2015 00:00:00 13.67167 C 60.8917 %
293 22-05-2015 00:00:00 14.2 C 62.6500 %
294 23-05-2015 00:00:00 15.09417 C 64.1833 %
295 24-05-2015 00:00:00 15.51167 C 66.0667 %
296 25-05-2015 00:00:00 15.44167 C 67.6833 %
297 26-05-2015 00:00:00 14.56583 C 64.3667 %
298 27-05-2015 00:00:00 13.92167 C 61.9000 %
299 28-05-2015 00:00:00 14.09667 C 63.4417 %
300 29-05-2015 00:00:00 14.41083 C 66.2083 %
Sensor: Nr:Datum:Temp:Feuchte:
G-T/H 301 30-05-2015 00:00:00 14.2725 C 64.4167 %
302 31-05-2015 00:00:00 13.905 C 62.9500 %
303 01-06-2015 00:00:00 15 C 67.3083 %
304 02-06-2015 00:00:00 15.0325 C 66.7583 %
305 03-06-2015 00:00:00 15.72083 C 67.7250 %
306 04-06-2015 00:00:00 16.01917 C 67.6000 %
307 05-06-2015 00:00:00 17.0325 C 68.6917 %
308 06-06-2015 00:00:00 18.33167 C 69.6917 %
309 07-06-2015 00:00:00 17.33583 C 63.9667 %
310 08-06-2015 00:00:00 16.80667 C 62.2833 %
311 09-06-2015 00:00:00 16.3075 C 60.2500 %
312 10-06-2015 00:00:00 15.97333 C 63.2417 %
313 11-06-2015 00:00:00 17.04083 C 65.1750 %
314 12-06-2015 00:00:00 17.6475 C 66.8667 %
315 13-06-2015 00:00:00 17.74417 C 69.4250 %
316 14-06-2015 00:00:00 17.46333 C 68.0500 %
317 15-06-2015 00:00:00 17.66333 C 67.1417 %
318 16-06-2015 00:00:00 17.08667 C 62.2083 %
319 17-06-2015 00:00:00 16.53083 C 59.9583 %
320 18-06-2015 00:00:00 16.97917 C 64.2333 %
321 19-06-2015 00:00:00 16.2025 C 63.4083 %
322 20-06-2015 00:00:00 15.62667 C 66.2917 %
323 21-06-2015 00:00:00 15.70413 C 68.0579 %
324 22-06-2015 00:00:00 15.6825 C 68.9417 %
325 23-06-2015 00:00:00 14.70917 C 69.2083 %
Sensor: Nr:Datum:Temp:Feuchte:
G-T/H 326 24-06-2015 00:00:00 14.74417 C 70.1583 %
327 25-06-2015 00:00:00 15.75583 C 70.2250 %
328 26-06-2015 00:00:00 16.96 C 70.9417 %
329 27-06-2015 00:00:00 18.00603 C 70.2500 %
330 28-06-2015 00:00:00 17.55833 C 67.8250 %
331 29-06-2015 00:00:00 18.61083 C 67.1667 %
332 30-06-2015 00:00:00 18.97333 C 65.3917 %
333 01-07-2015 00:00:00 19.56417 C 65.4833 %
334 02-07-2015 00:00:00 20.71917 C 67.3083 %
335 03-07-2015 00:00:00 22.09333 C 67.5333 %
336 04-07-2015 00:00:00 23.02333 C 66.0667 %
337 05-07-2015 00:00:00 23.00667 C 66.4583 %
338 06-07-2015 00:00:00 21.73583 C 63.1500 %
339 07-07-2015 00:00:00 20.9225 C 64.1583 %
340 08-07-2015 00:00:00 20.17417 C 62.1917 %
341 09-07-2015 00:00:00 18.86667 C 60.0250 %
342 10-07-2015 00:00:00 18.11167 C 57.7167 %
343 11-07-2015 00:00:00 20.0325 C 52.9917 %
344 12-07-2015 00:00:00 19.95167 C 59.6083 %
345 13-07-2015 00:00:00 18.8825 C 64.7917 %
346 14-07-2015 00:00:00 18.82833 C 67.3417 %
347 15-07-2015 00:00:00 20.49667 C 63.8917 %
348 16-07-2015 00:00:00 20.81917 C 66.0000 %
349 17-07-2015 00:00:00 23.54583 C 55.9833 %
350 18-07-2015 00:00:00 22.705 C 60.1667 %
Sensor: Nr:Datum:Temp:Feuchte:
G-T/H 351 19-07-2015 00:00:00 21.30417 C 63.4167 %
352 20-07-2015 00:00:00 21.16667 C 70.0917 %
353 21-07-2015 00:00:00 22.84 C 66.7833 %
354 22-07-2015 00:00:00 23.2075 C 64.8667 %
355 23-07-2015 00:00:00 22.08917 C 55.4167 %
356 24-07-2015 00:00:00 21.55833 C 57.6333 %
357 25-07-2015 00:00:00 20.4825 C 59.9167 %
358 26-07-2015 00:00:00 18.76387 C 59.6723 %
359 27-07-2015 00:00:00 18.50833 C 64.7833 %
360 28-07-2015 00:00:00 18.6175 C 55.4750 %
361 29-07-2015 00:00:00 18.64917 C 50.9833 %
362 30-07-2015 00:00:00 17.90333 C 55.0083 %
363 31-07-2015 00:00:00 17.51667 C 56.3750 %
364 01-08-2015 00:00:00 17.9775 C 60.4250 %
365 02-08-2015 00:00:00 19.4225 C 58.7000 %

Maximal/Minimal-Werte vom 03.08.2014 - 02.08.2015

Sensor Min Max Avg
Temp
(Aussen-T/F)
-6.4 °C
07-02-2015  08:16:17
44.1 °C
01-07-2015  18:22:17
10.92 °C
Feuchte
(Aussen-T/F)
20 %
12-08-2014  16:49:17
95 %
15-10-2014  07:43:17
71.86 %
Temp
(G-T/H)
2 °C
21-01-2015  13:50:17
28.1 °C
04-07-2015  15:58:17
12.9 °C
Feuchte
(G-T/H)
32 %
17-07-2015  14:23:17
84 %
20-09-2014  19:17:17
68.9 %

Die Daten stammen von einer Davis Vantage Pro 2 Wetter-Station und werden unter Linux mit der Software wview2wettercgi und aufbereitet. Alle Angaben erfolgen ohne Gewähr für ihre Vollständigkeit oder Richtigkeit.
Kontakt: Rainer Krienke krienke@uni-koblenz.de . Meine Webseiten an der Uni Koblenz oder privat.
Version: $Revision: 0.78 $